CZ-6A DEB, 60778

Orbit data source: Space-Track

CZ-6A DEB, 60778 is space debris in LEO originally from a launch on Tue, 06 Aug 2024 UTC launched from the Taiyaun Space Center, China (TSC). Debris objects in space refer to the collection of defunct objects orbiting the Earth. Examples of debris include non-operational satellites, rocket bodies, and fragments generated from explosions, collisions, or faulty payload assembly.

Loading next visibility...
Identifier
60778, 2024-140FD
Orbit
LEO
Country
Flag of CNCN / PRC
Related business
Manufacturer
SAST
Mission
Spacecraft
Bus & Motor
Unknown
Mass
Unknown
Launch date (UTC)
2024-08-06 (1 year ago)
Launch vehicle
Unknown
Launch site
Taiyaun Space Center, China (TSC)
Object type
Payload
Rocket body
Debris
Shape & HBR
Unknown shape, 0.1 m
Radar Cross Section
Small (<0.1 m²)

Expand to show TLE details & history
Last TLE update: 15 hours ago

TLE from 15 hours ago
0 CZ-6A DEB
1 60778U 24140FD  25342.87588704  .00051349  00000-0  54890-2 0  9992
2 60778  89.0075 292.3366 0054015 154.9555 205.4312 14.87447168 70968
Epoch: 2025-12-08T21:01Z
TLE epoch observation values (Epoch: 2025-12-08T21:01:16.640Z)
Latitude
0.00004°
Longitude
-100.85137°
Altitude
643.179 km
Speed
7.518 km/s
True Right ascension
19h 29m 20s
True Declination
0° 00' 00"
Sunlit
Object was in daylight at epoch
Visualization orbit readout
Latitude
Unknown
Longitude
Unknown
Altitude
Unknown
Speed
Unknown
Apparent Right ascension
Unknown
Apparent Declination
Unknown
Sunlit
N/A
Visualization observer readout
Local Sidereal Time
10:13:27
Azimuth
Unknown
Elevation
Unknown
Doppler factor
Unknown
Orbital elements
Apogee altitude
640.478 km
Perigee altitude
565.063 km
Semi-major axis
6,980.907 km
Eccentricity
0.0054
Inclination
89.0075°
RAAN
292.3366°
Arg. of periapsis
154.9555°
True anomaly
205.16701°
Mean anomaly
205.4312°
Eccentric anomaly
205.29895°
Mean motion
3.72113 °/min
Orbital period
96.74 mins
BSTAR
0.005489
Loading maneuver chart data...
Computing Atmospheric mass density...
Loading historical data...
Loading historical data...
Loading historical data...
Loading historical data...
Loading historical data...
Loading historical data...
Loading historical data...

Documentation

Showing up to 5 results
|